Orbital Elements at Epoch 2459000.5 (2020-May-31.0) TDB
Reference: JPL 16 (heliocentric ecliptic J2000)
Element | Value | Uncertainty (1-sigma) | Units |
e | .3766249964385683 | 4.2645e-08 | |
a | 2.599993677067653 | 2.0846e-08 | au |
q | 1.620771067701748 | 1.1405e-07 | au |
i | 27.95917179799044 | 8.2573e-06 | deg |
node | 204.1293933751917 | 9.791e-06 | deg |
peri | 287.7214987965701 | 2.1309e-05 | deg |
M | 22.70315227957105 | 8.6304e-06 | deg |
tp | 2458903.930379220909 (2020-Feb-24.43037922) | 3.7184e-05 | TDB |
period | 1531.287948579523 4.19 | 1.8416e-05 5.042e-08 | d yr |
n | .2350962144866018 | 2.8273e-09 | deg/d |
Q | 3.579216286433557 | 2.8697e-08 | au |
|
| | Orbit Determination Parameters
Additional Information
|